This is the latest recevied weather packets stored in our database for station/object OH7GGX-14. If no packets are shown the sender has not sent any weather packets the latest 10 day(s).
| Time | Temp. | Humidity | Pressure | Rain* | Wind** | Luminosity | Snow |
|---|---|---|---|---|---|---|---|
| 1777630903 | 14.44° C | 52% | 1017.8 hPa | 0 mm | - | - | - |
| 1777630303 | 14.44° C | 52% | 1017.8 hPa | 0 mm | - | - | - |
| 1777629703 | 14.44° C | 52% | 1017.9 hPa | 0 mm | - | - | - |
| 1777629103 | 14.44° C | 55% | 1017.9 hPa | 0 mm | - | - | - |
| 1777627903 | 13.89° C | 57% | 1018.3 hPa | 0 mm | - | - | - |
| 1777627303 | 13.33° C | 59% | 1018.4 hPa | 0 mm | - | - | - |
| 1777626703 | 13.33° C | 59% | 1018.6 hPa | 0 mm | - | - | - |
| 1777626103 | 13.33° C | 60% | 1018.8 hPa | 0 mm | - | - | - |
| 1777625503 | 12.78° C | 61% | 1018.9 hPa | 0 mm | - | - | - |
| 1777624903 | 12.78° C | 62% | 1019 hPa | 0 mm | - | - | - |
| 1777624303 | 12.78° C | 65% | 1019.1 hPa | 0 mm | - | - | - |
| 1777623703 | 12.22° C | 67% | 1019 hPa | 0 mm | - | - | - |
| 1777623103 | 12.22° C | 69% | 1019.2 hPa | 0 mm | - | - | - |
| 1777622503 | 11.67° C | 71% | 1019.3 hPa | 0 mm | - | - | - |
| 1777621903 | 11.11° C | 74% | 1019.5 hPa | 0 mm | - | - | - |
| 1777621303 | 10.56° C | 79% | 1019.4 hPa | 0 mm | - | - | - |
| 1777620703 | 10.56° C | 80% | 1019.5 hPa | 0 mm | - | - | - |
| 1777620103 | 10.56° C | 81% | 1019.7 hPa | 0 mm | - | - | - |
| 1777619503 | 10.56° C | 82% | 1019.7 hPa | 0 mm | - | - | - |
| 1777618903 | 10° C | 85% | 1019.7 hPa | 0 mm | - | - | - |
| 1777618303 | 10° C | 86% | 1019.7 hPa | 0 mm | - | - | - |
| 1777617703 | 9.44° C | 88% | 1019.8 hPa | 0 mm | - | - | - |
| 1777617103 | 9.44° C | 91% | 1019.8 hPa | 0 mm | - | - | - |
| 1777616503 | 8.89° C | 94% | 1019.8 hPa | 0 mm | - | - | - |
| 1777615903 | 7.78° C | 97% | 1019.9 hPa | 0 mm | - | - | - |
* Rain latest hour (hover to see other rain measurements)
** Current wind speed in m/s (hover to see current wind gust speed)